Air Resources Laboratory banner image
Air Resources Laboratory web site National Oceanic and Atmospheric Administration (NOAA)

vt roundup


Office: BTV

ASUS41 KBTV 210810
RWRBTV
VERMONT REGIONAL WEATHER ROUNDUP
NATIONAL WEATHER SERVICE BURLINGTON VT
400 AM EDT TUE AUG 21 2018

NOTE: "FAIR" INDICATES FEW OR NO CLOUDS BELOW 12,000 FEET WITH NO
SIGNIFICANT WEATHER AND/OR OBSTRUCTIONS TO VISIBILITY.

* THESE REPORTS ARE NOT UNDER NWS QUALITY CONTROL AND/OR DO NOT
  REPORT WEATHER SUCH AS PRECIPITATION AND FOG.

VTZ001>019-210900-
_____VERMONT_____


CITY           SKY/WX    TMP DP  RH WIND       PRES   REMARKS
BURLINGTON     FAIR      63  56  78 CALM      30.10S
MONTPELIER     FAIR      55  55 100 CALM      30.18F
MORRISVILLE    FAIR      50  50 100 S3        30.15S
ST. JOHNSBURY*   N/A     56  56 100 MISG      30.13F
LYNDONVILLE*   FAIR      55  54  97 CALM      30.18F FOG
MIDDLEBURY*    FAIR      61  56  84 SE5       30.11F
SPRINGFIELD    FOG       57  57 100 CALM      30.16F VSB 1/4
HIGHGATE*      FAIR      58  56  93 CALM      30.10F
NEWPORT*       FAIR      55  54  99 SW6       30.15F
BENNINGTON     FAIR      58  54  86 CALM      30.13F
LAKE EDEN*       N/A     54 N/A N/A CALM        N/A

_____LAKE CHAMPLAIN_____


CITY           SKY/WX    TMP DP  RH WIND       PRES   REMARKS
BURTON ISLAND*   N/A     68  59  73 SE13        N/A
COLCHESTER RF*   N/A     68  63  83 S21         N/A
DIAMOND ISL*     N/A     66  61  82 S8          N/A

$$

NYZ007-026>031-035-052-083-087-210900-
_____NORTHERN NEW YORK_____


CITY           SKY/WX    TMP DP  RH WIND       PRES   REMARKS
PLATTSBURGH    FAIR      56  54  93 CALM      30.09S
SARANAC LAKE   FAIR      46  46 100 CALM      30.12S
MASSENA        FAIR      57  56  96 CALM      30.07S
OGDENSBURG*    FAIR      58  57  96 CALM      30.04F
WATERTOWN      FAIR      66  61  84 S5        30.03F
FT DRUM        FAIR      64  64 100 SE12      30.05S
ALBANY         CLOUDY    67  59  75 S12       30.12F
GLENS FALLS    FOG       58  58 100 CALM      30.11S VSB 1/2

$$
NHZ002-005-011-210900-
_____NEW HAMPSHIRE_____


CITY           SKY/WX    TMP DP  RH WIND       PRES   REMARKS
LEBANON        FAIR      55  51  86 CALM      30.15F
KEENE          FOG      N/A N/A N/A CALM      30.16F VSB 1/4
MT WASHINGTON  PTCLDY    45  41  87 E9          N/A
PLYMOUTH       CLOUDY    56  55  95 CALM      30.16F FOG
WHITEFIELD     CLOUDY    51  50  96 CALM      30.16F FOG

$$

_____REGIONAL QUEBEC LOCATIONS_____


CITY           SKY/WX    TMP DP  RH WIND       PRES   REMARKS

_____REGIONAL ONTARIO LOCATIONS_____


CITY           SKY/WX    TMP DP  RH WIND       PRES   REMARKS

______KEY______
VSB  - VISIBILITY IN MILES
WCI  - WIND CHILL INDEX
HX   - HEAT INDEX
$$
NNNN




Office: BOX ASUS41 KBOX 210810 RWRBOX REGIONAL WEATHER ROUNDUP NATIONAL WEATHER SERVICE BOSTON/NORTON MA 400 AM EDT TUE AUG 21 2018 NOTE: "FAIR" INDICATES FEW OR NO CLOUDS BELOW 12,000 FEET WITH NO SIGNIFICANT WEATHER AND/OR OBSTRUCTIONS TO VISIBILITY. MAZALL-210900- EASTERN MASSACHUSETTS CITY SKY/WX TMP DP RH WIND PRES REMARKS BOSTON MOCLDY 66 62 87 N7 30.14F BEVERLY FOG 62 61 96 N3 30.14S VSB 1/2 LAWRENCE FAIR 64 59 83 CALM 30.17F BEDFORD CLOUDY 60 58 92 CALM 30.14F BLUE HILL N/A 62 62 100 N6 30.14F NORWOOD CLOUDY 66 63 90 CALM 30.13F MARSHFIELD CLOUDY 68 64 88 VRB5 30.12F PLYMOUTH CLOUDY 67 63 87 NE6 30.13S TAUNTON CLOUDY 64 62 93 N3 30.13F NEW BEDFORD CLOUDY 64 64 100 N6 30.11F $$ MAZALL-210900- CAPE COD AND THE ISLANDS CITY SKY/WX TMP DP RH WIND PRES REMARKS FALMOUTH CLOUDY 66 64 94 N7 30.12F HYANNIS CLOUDY 68 64 87 NE6 30.09F CHATHAM CLOUDY 67 64 90 NE6 30.11F PROVINCETOWN CLOUDY 65 63 93 NE5 30.13S NANTUCKET CLOUDY 65 65 100 NE10 30.08F FOG MARTHAS VNYRD CLOUDY 68 66 93 N6 30.10F $$ MAZALL-210900- CENTRAL AND WESTERN MASSACHUSETTS CITY SKY/WX TMP DP RH WIND PRES REMARKS WORCESTER FOG 58 58 100 N6 30.16F VSB 1/4 FITCHBURG CLOUDY 57 55 93 NW3 30.17F ORANGE FOG 56 55 97 CALM 30.16F VSB 1/2 SPRINGFIELD FAIR 56 55 96 CALM 30.13F WESTFIELD FOG 59 59 100 CALM 30.14F VSB 3/4 NORTH ADAMS FAIR 60 57 89 SE8 30.14F PITTSFIELD MOCLDY 59 56 89 CALM 30.14F $$ RIZALL-210900- RHODE ISLAND CITY SKY/WX TMP DP RH WIND PRES REMARKS PROVIDENCE CLOUDY 65 61 87 N8 30.13F NEWPORT CLOUDY 64 63 96 N6 30.12F BLOCK ISLAND CLOUDY 65 64 97 N9 30.12F SMITHFIELD CLOUDY 61 61 100 N6 30.15S WESTERLY FAIR 64 63 96 NE6 30.12F $$ CTZALL-210900- CONNECTICUT CITY SKY/WX TMP DP RH WIND PRES REMARKS BRADLEY INTL FAIR 58 57 97 N3 30.13F HARTFORD FAIR 61 58 90 CALM 30.13F BRIDGEPORT FAIR 67 60 78 N7 30.13S DANBURY CLOUDY 65 61 87 E3 30.14F GROTON FAIR 63 60 90 N7 30.12F NEW HAVEN CLOUDY 66 61 84 CALM 30.13F CHESTER CLOUDY 61 61 100 NE3 30.13F MERIDEN CLOUDY 64 58 80 N3 30.13F WILLIMANTIC FAIR 58 57 97 CALM 30.14F OXFORD CLOUDY 63 58 83 E6 30.15F $$ MEZ002-015-021-024-NHZ003-005-008-011-012-014-VTZ005-008-210900- NORTHERN NEW ENGLAND CITY SKY/WX TMP DP RH WIND PRES REMARKS PORTLAND ME FAIR 57 56 96 CALM 30.16F BANGOR ME FAIR 56 55 97 CALM 30.17S CONCORD NH MOCLDY 54 52 93 CALM 30.16F MANCHESTER NH MOCLDY 60 58 92 CALM 30.14F VSB 1 NASHUA NH CLOUDY 59 58 96 NW5 30.16 PORTSMOUTH NH MOCLDY 59 58 96 CALM 30.14 JAFFREY NH FOG 54 54 100 CALM 30.18F VSB 1/4 KEENE NH FOG N/A N/A N/A CALM 30.16F VSB 1/4 BURLINGTON VT FAIR 63 56 78 CALM 30.10S MT. WASHINGTON PTCLDY 45 41 87 E9 N/A $$ NYZ052-076-210900- EASTERN NEW YORK CITY SKY/WX TMP DP RH WIND PRES REMARKS ALBANY CLOUDY 67 59 75 S12 30.12F NEW YORK CITY FAIR 69 62 78 E7 30.10F $$ ANZALL-210900- MARINE OBSERVATIONS STATION/POSITION TIME TEMP WIND PRES VSBY WAVE AIR SEA DIR/SP/G HT/PER (UTC) (F) (DEG/KT/KT) (MB) (MI) (FT/S) BOSTON BUOY NOT AVBL BUZZARDS BAY NOT AVBL NANTUCKET SOUND NOT AVBL MASS BAY-STELLWA 0704 67 68 30/ 10/ 12 1019.3 1 7/8 4/ 8 ISLE OF SHOALS NOT AVBL S OF BLOCK IS 0743 70 N/A 3/ 7 $$ ......................KEY......................... SKY/WX - SKY CONDITION/PRESENT WEATHER TMP - TEMPERATURE IN FAHRENHEIT DWPT - DEWPOINT IN FAHRENHEIT RH - RELATIVE HUMIDITY IN PERCENT WIND - DIRECTION AND SPEED IN MPH PRES - MEAN SEA LEVEL PRESSURE IN INCHES OF HG WCI - WIND CHILL INDEX VSB - VISIBILITY IN MILES HX - HEAT INDEX TC - TEMPERATURE IN CELSIUS VRB - VARIABLE WIND DIRECTION N/A - NOT AVAILABLE
Office: GYX ASUS41 KGYX 210805 RWRGYX WEATHER ROUNDUP FOR MAINE AND NEW HAMPSHIRE NATIONAL WEATHER SERVICE GRAY ME 400 AM EDT TUE AUG 21 2018 MEZ002-005-006-010-012-015-018-020-021-024-026-027-029-210900- MAINE CITY SKY/WX TMP DP RH WIND PRES REMARKS PORTLAND FAIR 57 56 96 CALM 30.16F SANFORD FAIR 49 49 100 CALM 30.16F FOG BAR HARBOR FAIR 52 51 97 CALM 30.17F WISCASSET FAIR 50 50 100 CALM 30.17F ROCKLAND FAIR 50 50 100 CALM 30.16F FRYEBURG FOG 51 51 100 CALM 30.17F VSB 1/4 LEWISTONAUBURN FOG 53 53 100 CALM 30.16F VSB 1/4 AUGUSTA FOG 56 56 100 CALM 30.16F VSB 1/2 WATERVILLE FAIR 54 54 100 CALM 30.14F FOG BANGOR FAIR 56 55 97 CALM 30.17S GREENVILLE N/A 56 54 93 SE3 30.15F MILLINOCKET CLOUDY 52 51 97 CALM 30.17S HOULTON FAIR 47 47 100 CALM 30.15S PRESQUE ISLE MOCLDY 48 47 96 CALM 30.17R FOG FRENCHVILLE FAIR 57 51 80 SE5 30.15S CARIBOU FAIR 52 50 93 CALM 30.15S $$ NHZ002-005-008-009-011-012-014-210900- NEW HAMPSHIRE CITY SKY/WX TMP DP RH WIND PRES REMARKS PORTSMOUTH MOCLDY 59 58 96 CALM 30.14F ROCHESTER FAIR 54 54 100 CALM 30.15F NASHUA CLOUDY 59 58 96 NW5 30.16 MANCHESTER MOCLDY 60 58 92 CALM 30.14F VSB 1 CONCORD MOCLDY 54 52 93 CALM 30.16F LACONIA FAIR 56 54 93 CALM 30.17F PLYMOUTH CLOUDY 56 55 95 CALM 30.16F FOG BERLIN FOG 52 51 97 CALM 30.18F VSB 1/4 WHITEFIELD MOCLDY 50 49 96 CALM 30.17F JAFFREY FOG 54 54 100 CALM 30.18F VSB 1/4 KEENE FOG N/A N/A N/A CALM 30.16F VSB 1/4 LEBANON FAIR 55 51 86 CALM 30.15F MT WASHINGTON PTCLDY 45 41 87 E9 N/A $$ VTZ005-007-008-210900- VERMONT CITY SKY/WX TMP DP RH WIND PRES REMARKS ST JOHNSBURY N/A 56 56 100 MISG 30.13F MONTPELIER FAIR 55 55 100 CALM 30.18F BURLINGTON FAIR 63 56 78 CALM 30.10S $$ MAZ007-012-024-CTZ003-RIZ002-NYZ038-NYZ072-210900- SOUTHERN NEW ENGLAND AND NY CITY SKY/WX TMP DP RH WIND PRES REMARKS BOSTON MOCLDY 66 62 87 N7 30.14F WORCESTER FOG 58 58 100 NE5 30.16F VSB 1/4 NANTUCKET CLOUDY 65 65 100 NE10 30.08F FOG PROVIDENCE CLOUDY 65 61 87 N8 30.13F HARTFORD FAIR 58 57 97 N3 30.13F ALBANY CLOUDY 67 59 75 S12 30.12F NEW YORK CITY FAIR 69 62 78 E7 30.10F $$ ANZ081-ANZ082-ANZ150-NHZ014-MEZ023>029-210900- COASTAL MARINE OBSERVATIONS STATION/POSITION TIME TEMP WIND PRES WAVE AIR SEA DIR/SP/G HT/PER (UTC) (F) (DEG/KT/KT) (MB) (FT/S) MOUNT DESERT ROC 0800 58 340/ 8/ 8 1021.2F JEFFREYS LEDGE 0736 69 N/A 4/ 8 $$ .............KEY.............. WCI - WIND CHILL TC - TEMPERATURE IN CELSIUS VSB - VISIBILITY IN MILES HX - HEAT INDEX FAIR- INDICATES FEW OR NO CLOUDS BELOW 12,000 FT, WITH NO SIGNIFICANT WEATHER AND/OR OBSTRUCTIONS TO VISIBILITY. ASUS41 KGYX 210810 RWRGYX WEATHER ROUNDUP FOR MAINE AND NEW HAMPSHIRE NATIONAL WEATHER SERVICE GRAY ME 400 AM EDT TUE AUG 21 2018 MEZ002-005-006-010-012-015-018-020-021-024-026-027-029-210900- MAINE CITY SKY/WX TMP DP RH WIND PRES REMARKS PORTLAND FAIR 57 56 96 CALM 30.16F SANFORD FAIR 48 48 100 CALM 30.16F FOG BAR HARBOR FAIR 52 51 97 CALM 30.17F WISCASSET FAIR 50 50 100 CALM 30.17F ROCKLAND FAIR 50 50 100 CALM 30.16F FRYEBURG FOG 51 51 100 CALM 30.17F VSB 1/4 LEWISTONAUBURN FOG 53 53 100 CALM 30.16F VSB 1/4 AUGUSTA FAIR 56 56 100 CALM 30.16F FOG WATERVILLE FAIR 54 54 100 CALM 30.14F FOG BANGOR FAIR 56 55 97 CALM 30.17S GREENVILLE N/A 56 54 93 SE3 30.15F MILLINOCKET CLOUDY 52 51 97 CALM 30.17S HOULTON FAIR 47 47 100 CALM 30.15S PRESQUE ISLE FOG 46 46 100 CALM 30.16S VSB 3/4 FRENCHVILLE FAIR 57 51 80 SE5 30.15S CARIBOU FAIR 52 50 93 CALM 30.15S $$ NHZ002-005-008-009-011-012-014-210900- NEW HAMPSHIRE CITY SKY/WX TMP DP RH WIND PRES REMARKS PORTSMOUTH MOCLDY 59 58 96 CALM 30.14F ROCHESTER FAIR 54 54 100 CALM 30.15F NASHUA CLOUDY 59 58 96 NW5 30.16 MANCHESTER MOCLDY 60 58 92 CALM 30.14F VSB 1 CONCORD MOCLDY 54 52 93 CALM 30.16F LACONIA FAIR 56 54 93 CALM 30.17F PLYMOUTH CLOUDY 56 55 95 CALM 30.16F FOG BERLIN FOG 52 51 97 CALM 30.18F VSB 1/4 WHITEFIELD CLOUDY 51 50 96 CALM 30.16F FOG JAFFREY FOG 54 54 100 CALM 30.18F VSB 1/4 KEENE FOG N/A N/A N/A CALM 30.16F VSB 1/4 LEBANON FAIR 55 51 86 CALM 30.15F MT WASHINGTON PTCLDY 45 41 87 E9 N/A $$ VTZ005-007-008-210900- VERMONT CITY SKY/WX TMP DP RH WIND PRES REMARKS ST JOHNSBURY N/A 56 56 100 MISG 30.13F MONTPELIER FAIR 55 55 100 CALM 30.18F BURLINGTON FAIR 63 56 78 CALM 30.10S $$ MAZ007-012-024-CTZ003-RIZ002-NYZ038-NYZ072-210900- SOUTHERN NEW ENGLAND AND NY CITY SKY/WX TMP DP RH WIND PRES REMARKS BOSTON MOCLDY 66 62 87 N7 30.14F WORCESTER FOG 58 58 100 N6 30.16F VSB 1/4 NANTUCKET CLOUDY 65 65 100 NE10 30.08F FOG PROVIDENCE CLOUDY 65 61 87 N8 30.13F HARTFORD FAIR 58 57 97 N3 30.13F ALBANY CLOUDY 67 59 75 S12 30.12F NEW YORK CITY FAIR 69 62 78 E7 30.10F $$ ANZ081-ANZ082-ANZ150-NHZ014-MEZ023>029-210900- COASTAL MARINE OBSERVATIONS STATION/POSITION TIME TEMP WIND PRES WAVE AIR SEA DIR/SP/G HT/PER (UTC) (F) (DEG/KT/KT) (MB) (FT/S) MOUNT DESERT ROC 0800 58 340/ 8/ 8 1021.2F JEFFREYS LEDGE 0736 69 N/A 4/ 8 $$ .............KEY.............. WCI - WIND CHILL TC - TEMPERATURE IN CELSIUS VSB - VISIBILITY IN MILES HX - HEAT INDEX FAIR- INDICATES FEW OR NO CLOUDS BELOW 12,000 FT, WITH NO SIGNIFICANT WEATHER AND/OR OBSTRUCTIONS TO VISIBILITY.